Content
SEND FEEDBACK

Daily
Averages
Monthly
Summary
United States of America

HUNGRY HORSE, MONTANA


Home > North America > United States > Montana
Elevation: 3304 feet     Latitude: 48 23N     Longitude: 114 03W

WEATHER
 
SELECT A DAY
Number of Records: 92,293;   Date Range: 10/25/05 - 9/18/14
 
SHARE

PRINT THIS DATA

[ ← Previous Day ]
WEATHER ALMANAC - FEBRUARY 13, 2013
[ Next Day → ]
[ °C ]   °F
Weather ElementAverageHighLow
Temperature38.9 °F46 °F (12:55 pm)27 °F (11:55 pm)
Dewpoint25.9 °F30.9 °F (3:55 am)19 °F (3:55 pm)
Humidity61.9 %85 % (5:55 am)36 % (3:55 pm)
Barometer30.10 in30.25 in (11:55 pm)30.00 in (4:55 am)
Wind Speed7.2 mph18.4 mph (6:55 am)
Wind Gust26.5 mph (6:55 am)
Weather ElementAverage
Visibility10 mi
Wind DirectionS (176.1 °)

Weather ElementTotal
Precipitation---
Heating Degree Days28.5 (Base 65)
Averaged from 23 records on February 13, 2013
WEATHER CONDITIONS BREAKOUT
WIND DIRECTION BREAKOUT
WEATHER BY HOUR - FEBRUARY 13, 2013
[ °C ]   °F
Local TimeTemperatureDewpointHumidityBarometerVisibilityWind DirectionWind SpeedGust SpeedPrecipitationEventsConditions
1:55 AM37.0 °F30.0 °F76 %30.04 in10.0 miSSE (160°)12.7 mphOvercast
2:55 AM37.0 °F30.0 °F76 %30.02 in10.0 miSSE (160°)10.4 mphOvercast
3:55 AM37.0 °F30.9 °F79 %30.02 in10.0 miSSE (160°)10.4 mphOvercast
4:55 AM39.0 °F30.9 °F73 %30.00 in10.0 miSouth (180°)8.1 mph0.00 inOvercast
5:55 AM34.0 °F30.0 °F85 %30.03 in10.0 miCalmOvercast
6:55 AM37.0 °F30.9 °F79 %30.03 in10.0 miWNW (290°)18.4 mph26.5 mph0.00 inRainLight Rain
7:55 AM34.0 °F28.0 °F79 %30.06 in10.0 miCalm0.00 inScattered Clouds
8:55 AM39.0 °F28.9 °F67 %30.08 in10.0 miCalmScattered Clouds
9:55 AM41.0 °F28.9 °F62 %30.09 in10.0 miSE (140°)5.8 mphScattered Clouds
10:55 AM42.1 °F30.9 °F65 %30.10 in10.0 miSE (140°)11.5 mphOvercast
11:55 AM44.1 °F25.0 °F47 %30.10 in10.0 miSSW (210°)5.8 mphMostly Cloudy
12:55 PM46.0 °F24.1 °F42 %30.09 in10.0 miWSW (240°)10.4 mphMostly Cloudy
1:55 PM45.0 °F24.1 °F44 %30.08 in10.0 miSW (230°)10.4 mphMostly Cloudy
2:55 PM46.0 °F21.0 °F37 %30.07 in10.0 miWSW (250°)11.5 mph19.6 mphMostly Cloudy
3:55 PM45.0 °F19.0 °F36 %30.09 in10.0 miWest (260°)8.1 mph17.3 mphOvercast
4:55 PM43.0 °F21.9 °F43 %30.11 in10.0 miWest (260°)11.5 mph17.3 mphOvercast
5:55 PM39.9 °F21.9 °F49 %30.14 in10.0 miWest (270°)3.5 mphOvercast
6:55 PM41.0 °F23.0 °F49 %30.16 in10.0 miWest (280°)10.4 mphMostly Cloudy
7:55 PM36.0 °F24.1 °F62 %30.19 in10.0 miWNW (290°)5.8 mphScattered Clouds
8:55 PM37.0 °F24.1 °F59 %30.19 in10.0 miWest (280°)6.9 mphClear
9:55 PM35.1 °F23.0 °F61 %30.22 in10.0 miWSW (250°)3.5 mphClear
10:55 PM32.0 °F23.0 °F69 %30.24 in10.0 miCalmClear
11:55 PM27.0 °F23.0 °F85 %30.25 in10.0 miCalmClear
Hourly data recorded from KGPI, located miles away from Hungry Horse, Montana







STORIES FROM OUR PARTNERS